Year,Month,Day,Hour,Minute,Value (Times are PST for temperature in C)
2011,07,05,00,00,11.10
2011,07,05,00,01,11.10
2011,07,05,00,02,11.10
2011,07,05,00,03,11.10
2011,07,05,00,04,11.10
2011,07,05,00,05,11.10
2011,07,05,00,06,11.10
2011,07,05,00,07,11.10
2011,07,05,00,08,11.10
2011,07,05,00,09,11.10
2011,07,05,00,10,11.10
2011,07,05,00,11,11.10
2011,07,05,00,12,11.10
2011,07,05,00,13,11.10
2011,07,05,00,14,11.10
2011,07,05,00,15,11.10
2011,07,05,00,16,11.10
2011,07,05,00,17,11.10
2011,07,05,00,18,11.10
2011,07,05,00,19,11.10
2011,07,05,00,20,11.10
2011,07,05,00,21,11.10
2011,07,05,00,22,11.10
2011,07,05,00,23,11.10
2011,07,05,00,24,11.10
2011,07,05,00,25,11.10
2011,07,05,00,26,11.10
2011,07,05,00,27,11.10
2011,07,05,00,28,11.10
2011,07,05,00,29,11.10
2011,07,05,00,30,11.10
2011,07,05,00,31,11.10
2011,07,05,00,32,11.10
2011,07,05,00,33,11.10
2011,07,05,00,34,11.10
2011,07,05,00,35,11.10
2011,07,05,00,36,11.10
2011,07,05,00,37,11.10
2011,07,05,00,38,11.10
2011,07,05,00,39,11.10
2011,07,05,00,40,11.10
2011,07,05,00,41,11.10
2011,07,05,00,42,11.00
2011,07,05,00,43,10.90
2011,07,05,00,44,10.90
2011,07,05,00,45,10.90
2011,07,05,00,46,10.90
2011,07,05,00,47,10.90
2011,07,05,00,48,10.90
2011,07,05,00,49,10.90
2011,07,05,00,50,10.90
2011,07,05,00,51,10.90
2011,07,05,00,52,10.90
2011,07,05,00,53,10.90
2011,07,05,00,54,10.90
2011,07,05,00,55,10.90
2011,07,05,00,56,10.90
2011,07,05,00,57,10.90
2011,07,05,00,58,10.90
2011,07,05,00,59,10.90
2011,07,05,01,00,10.90
2011,07,05,01,01,10.90
2011,07,05,01,02,10.90
2011,07,05,01,03,10.90
2011,07,05,01,04,10.90
2011,07,05,01,05,10.90
2011,07,05,01,06,10.90
2011,07,05,01,07,10.90
2011,07,05,01,08,10.90
2011,07,05,01,09,10.90
2011,07,05,01,10,10.90
2011,07,05,01,11,10.80
2011,07,05,01,12,10.80
2011,07,05,01,13,10.80
2011,07,05,01,14,10.80
2011,07,05,01,15,10.80
2011,07,05,01,16,10.80
2011,07,05,01,17,10.80
2011,07,05,01,18,10.80
2011,07,05,01,19,10.80
2011,07,05,01,20,10.80
2011,07,05,01,21,10.70
2011,07,05,01,22,10.70
2011,07,05,01,23,10.70
2011,07,05,01,24,10.70
2011,07,05,01,25,10.70
2011,07,05,01,26,10.80
2011,07,05,01,27,10.80
2011,07,05,01,28,10.80
2011,07,05,01,29,10.80
2011,07,05,01,30,10.80
2011,07,05,01,31,10.80
2011,07,05,01,32,10.70
2011,07,05,01,33,10.70
2011,07,05,01,34,10.70
2011,07,05,01,35,10.70
2011,07,05,01,36,10.70
2011,07,05,01,37,10.70
2011,07,05,01,38,10.70
2011,07,05,01,39,10.70
2011,07,05,01,40,10.70
2011,07,05,01,41,10.70
2011,07,05,01,42,10.70
2011,07,05,01,43,10.70
2011,07,05,01,44,10.70
2011,07,05,01,45,10.70
2011,07,05,01,46,10.70
2011,07,05,01,47,10.70
2011,07,05,01,48,10.70
2011,07,05,01,49,10.60
2011,07,05,01,50,10.60
2011,07,05,01,51,10.60
2011,07,05,01,52,10.60
2011,07,05,01,53,10.60
2011,07,05,01,54,10.60
2011,07,05,01,55,10.60
2011,07,05,01,56,10.60
2011,07,05,01,57,10.60
2011,07,05,01,58,10.60
2011,07,05,01,59,10.60
2011,07,05,02,00,10.60
2011,07,05,02,01,10.60
2011,07,05,02,02,10.60
2011,07,05,02,03,10.60
2011,07,05,02,04,10.60
2011,07,05,02,05,10.60
2011,07,05,02,06,10.60
2011,07,05,02,07,10.60
2011,07,05,02,08,10.60
2011,07,05,02,09,10.60
2011,07,05,02,10,10.60
2011,07,05,02,11,10.60
2011,07,05,02,12,10.60
2011,07,05,02,13,10.60
2011,07,05,02,14,10.60
2011,07,05,02,15,10.60
2011,07,05,02,16,10.60
2011,07,05,02,17,10.60
2011,07,05,02,18,10.60
2011,07,05,02,19,10.60
2011,07,05,02,20,10.60
2011,07,05,02,21,10.60
2011,07,05,02,22,10.60
2011,07,05,02,23,10.60
2011,07,05,02,24,10.60
2011,07,05,02,25,10.50
2011,07,05,02,26,10.40
2011,07,05,02,27,10.40
2011,07,05,02,28,10.40
2011,07,05,02,29,10.40
2011,07,05,02,30,10.40
2011,07,05,02,31,10.40
2011,07,05,02,32,10.40
2011,07,05,02,33,10.40
2011,07,05,02,34,10.40
2011,07,05,02,35,10.40
2011,07,05,02,36,10.40
2011,07,05,02,37,10.40
2011,07,05,02,38,10.40
2011,07,05,02,39,10.40
2011,07,05,02,40,10.40
2011,07,05,02,41,10.40
2011,07,05,02,42,10.40
2011,07,05,02,43,10.40
2011,07,05,02,44,10.40
2011,07,05,02,45,10.40
2011,07,05,02,46,10.40
2011,07,05,02,47,10.40
2011,07,05,02,48,10.40
2011,07,05,02,49,10.40
2011,07,05,02,50,10.30
2011,07,05,02,51,10.30
2011,07,05,02,52,10.30
2011,07,05,02,53,10.30
2011,07,05,02,54,10.30
2011,07,05,02,55,10.30
2011,07,05,02,56,10.30
2011,07,05,02,57,10.30
2011,07,05,02,58,10.30
2011,07,05,02,59,10.30
2011,07,05,03,00,10.30
2011,07,05,03,01,10.30
2011,07,05,03,02,10.30
2011,07,05,03,03,10.30
2011,07,05,03,04,10.30
2011,07,05,03,05,10.30
2011,07,05,03,06,10.30
2011,07,05,03,07,10.30
2011,07,05,03,08,10.30
2011,07,05,03,09,10.30
2011,07,05,03,10,10.30
2011,07,05,03,11,10.30
2011,07,05,03,12,10.30
2011,07,05,03,13,10.30
2011,07,05,03,14,10.30
2011,07,05,03,15,10.30
2011,07,05,03,16,10.40
2011,07,05,03,17,10.40
2011,07,05,03,18,10.40
2011,07,05,03,19,10.40
2011,07,05,03,20,10.40
2011,07,05,03,21,10.40
2011,07,05,03,22,10.40
2011,07,05,03,23,10.40
2011,07,05,03,24,10.40
2011,07,05,03,25,10.40
2011,07,05,03,26,10.40
2011,07,05,03,27,10.40
2011,07,05,03,28,10.40
2011,07,05,03,29,10.40
2011,07,05,03,30,10.40
2011,07,05,03,31,10.40
2011,07,05,03,32,10.40
2011,07,05,03,33,10.40
2011,07,05,03,34,10.40
2011,07,05,03,35,10.40
2011,07,05,03,36,10.30
2011,07,05,03,37,10.30
2011,07,05,03,38,10.30
2011,07,05,03,39,10.30
2011,07,05,03,40,10.30
2011,07,05,03,41,10.30
2011,07,05,03,42,10.30
2011,07,05,03,43,10.30
2011,07,05,03,44,10.30
2011,07,05,03,45,10.30
2011,07,05,03,46,10.20
2011,07,05,03,47,10.20
2011,07,05,03,48,10.20
2011,07,05,03,49,10.20
2011,07,05,03,50,10.20
2011,07,05,03,51,10.20
2011,07,05,03,52,10.20
2011,07,05,03,53,10.20
2011,07,05,03,54,10.20
2011,07,05,03,55,10.20
2011,07,05,03,56,10.20
2011,07,05,03,57,10.20
2011,07,05,03,58,10.10
2011,07,05,03,59,10.10
2011,07,05,04,00,10.10
2011,07,05,04,01,10.10
2011,07,05,04,02,10.10
2011,07,05,04,03,10.10
2011,07,05,04,04,10.10
2011,07,05,04,05,10.10
2011,07,05,04,06,10.10
2011,07,05,04,07,10.10
2011,07,05,04,08,10.10
2011,07,05,04,09,10.10
2011,07,05,04,10,10.10
2011,07,05,04,11,10.10
2011,07,05,04,12,10.10
2011,07,05,04,13,10.10
2011,07,05,04,14,10.10
2011,07,05,04,15,10.10
2011,07,05,04,16,10.10
2011,07,05,04,17,10.10
2011,07,05,04,18,10.10
2011,07,05,04,19,10.10
2011,07,05,04,20,10.10
2011,07,05,04,21,10.10
2011,07,05,04,22,10.10
2011,07,05,04,23,10.10
2011,07,05,04,24,10.10
2011,07,05,04,25,10.00
2011,07,05,04,26,10.00
2011,07,05,04,27,10.00
2011,07,05,04,28,10.10
2011,07,05,04,29,10.10
2011,07,05,04,30,10.10
2011,07,05,04,31,10.10
2011,07,05,04,32,10.10
2011,07,05,04,33,10.10
2011,07,05,04,34,10.10
2011,07,05,04,35,10.10
2011,07,05,04,36,10.10
2011,07,05,04,37,10.10
2011,07,05,04,38,10.10
2011,07,05,04,39,10.10
2011,07,05,04,40,10.10
2011,07,05,04,41,10.10
2011,07,05,04,42,10.10
2011,07,05,04,43,10.10
2011,07,05,04,44,10.10
2011,07,05,04,45,10.20
2011,07,05,04,46,10.20
2011,07,05,04,47,10.10
2011,07,05,04,48,10.10
2011,07,05,04,49,10.10
2011,07,05,04,50,10.10
2011,07,05,04,51,10.10
2011,07,05,04,52,10.10
2011,07,05,04,53,10.10
2011,07,05,04,54,10.10
2011,07,05,04,55,10.10
2011,07,05,04,56,10.10
2011,07,05,04,57,10.10
2011,07,05,04,58,10.10
2011,07,05,04,59,10.10
2011,07,05,05,00,10.10
2011,07,05,05,01,10.10
2011,07,05,05,02,10.10
2011,07,05,05,03,10.10
2011,07,05,05,04,10.10
2011,07,05,05,05,10.10
2011,07,05,05,06,10.10
2011,07,05,05,07,10.10
2011,07,05,05,08,10.10
2011,07,05,05,09,10.10
2011,07,05,05,10,10.10
2011,07,05,05,11,10.10
2011,07,05,05,12,10.10
2011,07,05,05,13,10.10
2011,07,05,05,14,10.10
2011,07,05,05,15,10.10
2011,07,05,05,16,10.10
2011,07,05,05,17,10.10
2011,07,05,05,18,10.10
2011,07,05,05,19,10.10
2011,07,05,05,20,10.10
2011,07,05,05,21,10.10
2011,07,05,05,22,10.10
2011,07,05,05,23,10.10
2011,07,05,05,24,10.10
2011,07,05,05,25,10.10
2011,07,05,05,26,10.20
2011,07,05,05,27,10.20
2011,07,05,05,28,10.20
2011,07,05,05,29,10.20
2011,07,05,05,30,10.20
2011,07,05,05,31,10.30
2011,07,05,05,32,10.30
2011,07,05,05,33,10.30
2011,07,05,05,34,10.30
2011,07,05,05,35,10.30
2011,07,05,05,36,10.30
2011,07,05,05,37,10.30
2011,07,05,05,38,10.30
2011,07,05,05,39,10.30
2011,07,05,05,40,10.30
2011,07,05,05,41,10.30
2011,07,05,05,42,10.30
2011,07,05,05,43,10.30
2011,07,05,05,44,10.30
2011,07,05,05,45,10.30
2011,07,05,05,46,10.40
2011,07,05,05,47,10.40
2011,07,05,05,48,10.40
2011,07,05,05,49,10.40
2011,07,05,05,50,10.40
2011,07,05,05,51,10.40
2011,07,05,05,52,10.40
2011,07,05,05,53,10.40
2011,07,05,05,54,10.40
2011,07,05,05,55,10.60
2011,07,05,05,56,10.60
2011,07,05,05,57,10.60
2011,07,05,05,58,10.60
2011,07,05,05,59,10.60
2011,07,05,06,00,10.60
2011,07,05,06,01,10.60
2011,07,05,06,02,10.60
2011,07,05,06,03,10.70
2011,07,05,06,04,10.70
2011,07,05,06,05,10.70
2011,07,05,06,06,10.70
2011,07,05,06,07,10.80
2011,07,05,06,08,10.80
2011,07,05,06,09,10.80
2011,07,05,06,10,10.90
2011,07,05,06,11,10.90
2011,07,05,06,12,10.90
2011,07,05,06,13,10.90
2011,07,05,06,14,10.90
2011,07,05,06,15,10.90
2011,07,05,06,16,10.90
2011,07,05,06,17,10.90
2011,07,05,06,18,10.90
2011,07,05,06,19,10.90
2011,07,05,06,20,10.90
2011,07,05,06,21,10.90
2011,07,05,06,22,10.90
2011,07,05,06,23,10.90
2011,07,05,06,24,10.90
2011,07,05,06,25,11.00
2011,07,05,06,26,11.10
2011,07,05,06,27,11.10
2011,07,05,06,28,11.10
2011,07,05,06,29,11.10
2011,07,05,06,30,11.10
2011,07,05,06,31,11.10
2011,07,05,06,32,11.10
2011,07,05,06,33,11.10
2011,07,05,06,34,11.10
2011,07,05,06,35,11.20
2011,07,05,06,36,11.20
2011,07,05,06,37,11.20
2011,07,05,06,38,11.20
2011,07,05,06,39,11.30
2011,07,05,06,40,11.30
2011,07,05,06,41,11.30
2011,07,05,06,42,11.30
2011,07,05,06,43,11.40
2011,07,05,06,44,11.40
2011,07,05,06,45,11.40
2011,07,05,06,46,11.40
2011,07,05,06,47,11.40
2011,07,05,06,48,11.40
2011,07,05,06,49,11.40
2011,07,05,06,50,11.40
2011,07,05,06,51,11.40
2011,07,05,06,52,11.40
2011,07,05,06,53,11.40
2011,07,05,06,54,11.40
2011,07,05,06,55,11.40
2011,07,05,06,56,11.40
2011,07,05,06,57,11.40
2011,07,05,06,58,11.50
2011,07,05,06,59,11.60
2011,07,05,07,00,11.60
2011,07,05,07,01,11.60
2011,07,05,07,02,11.60
2011,07,05,07,03,11.60
2011,07,05,07,04,11.60
2011,07,05,07,05,11.60
2011,07,05,07,06,11.70
2011,07,05,07,07,11.70
2011,07,05,07,08,11.70
2011,07,05,07,09,11.70
2011,07,05,07,10,11.70
2011,07,05,07,11,11.70
2011,07,05,07,12,11.80
2011,07,05,07,13,11.80
2011,07,05,07,14,11.80
2011,07,05,07,15,11.80
2011,07,05,07,16,11.90
2011,07,05,07,17,11.90
2011,07,05,07,18,12.00
2011,07,05,07,19,12.00
2011,07,05,07,20,12.00
2011,07,05,07,21,12.10
2011,07,05,07,22,12.10
2011,07,05,07,23,12.20
2011,07,05,07,24,12.30
2011,07,05,07,25,12.30
2011,07,05,07,26,12.30
2011,07,05,07,27,12.30
2011,07,05,07,28,12.40
2011,07,05,07,29,12.40
2011,07,05,07,30,12.40
2011,07,05,07,31,12.50
2011,07,05,07,32,12.50
2011,07,05,07,33,12.50
2011,07,05,07,34,12.50
2011,07,05,07,35,12.50
2011,07,05,07,36,12.50
2011,07,05,07,37,12.50
2011,07,05,07,38,12.50
2011,07,05,07,39,12.50
2011,07,05,07,40,12.60
2011,07,05,07,41,12.60
2011,07,05,07,42,12.70
2011,07,05,07,43,12.70
2011,07,05,07,44,12.70
2011,07,05,07,45,12.80
2011,07,05,07,46,12.80
2011,07,05,07,47,12.80
2011,07,05,07,48,12.80
2011,07,05,07,49,12.80
2011,07,05,07,50,12.80
2011,07,05,07,51,12.90
2011,07,05,07,52,12.90
2011,07,05,07,53,12.90
2011,07,05,07,54,12.90
2011,07,05,07,55,13.00
2011,07,05,07,56,13.00
2011,07,05,07,57,13.10
2011,07,05,07,58,13.20
2011,07,05,07,59,13.20
2011,07,05,08,00,13.30
2011,07,05,08,01,13.30
2011,07,05,08,02,13.30
2011,07,05,08,03,13.30
2011,07,05,08,04,13.40
2011,07,05,08,05,13.40
2011,07,05,08,06,13.40
2011,07,05,08,07,13.40
2011,07,05,08,08,13.50
2011,07,05,08,09,13.50
2011,07,05,08,10,13.60
2011,07,05,08,11,13.60
2011,07,05,08,12,13.60
2011,07,05,08,13,13.70
2011,07,05,08,14,13.70
2011,07,05,08,15,13.70
2011,07,05,08,16,13.70
2011,07,05,08,17,13.70
2011,07,05,08,18,13.70
2011,07,05,08,19,13.70
2011,07,05,08,20,13.70
2011,07,05,08,21,13.70
2011,07,05,08,22,13.70
2011,07,05,08,23,13.70
2011,07,05,08,24,13.70
2011,07,05,08,25,13.80
2011,07,05,08,26,13.90
2011,07,05,08,27,13.90
2011,07,05,08,28,13.90
2011,07,05,08,29,14.00
2011,07,05,08,30,14.00
2011,07,05,08,31,14.10
2011,07,05,08,32,14.20
2011,07,05,08,33,14.30
2011,07,05,08,34,14.40
2011,07,05,08,35,14.40
2011,07,05,08,36,14.50
2011,07,05,08,37,14.50
2011,07,05,08,38,14.50
2011,07,05,08,39,14.50
2011,07,05,08,40,14.50
2011,07,05,08,41,14.50
2011,07,05,08,42,14.50
2011,07,05,08,43,14.50
2011,07,05,08,44,14.40
2011,07,05,08,45,14.50
2011,07,05,08,46,14.50
2011,07,05,08,47,14.60
2011,07,05,08,48,14.60
2011,07,05,08,49,14.60
2011,07,05,08,50,14.60
2011,07,05,08,51,14.70
2011,07,05,08,52,14.70
2011,07,05,08,53,14.80
2011,07,05,08,54,14.80
2011,07,05,08,55,14.80
2011,07,05,08,56,14.90
2011,07,05,08,57,14.90
2011,07,05,08,58,15.00
2011,07,05,08,59,15.10
2011,07,05,09,00,15.20
2011,07,05,09,01,15.30
2011,07,05,09,02,15.40
2011,07,05,09,03,15.50
2011,07,05,09,04,15.60
2011,07,05,09,05,15.60
2011,07,05,09,06,15.60
2011,07,05,09,07,15.70
2011,07,05,09,08,15.70
2011,07,05,09,09,15.70
2011,07,05,09,10,15.70
2011,07,05,09,11,15.70
2011,07,05,09,12,15.70
2011,07,05,09,13,15.80
2011,07,05,09,14,15.90
2011,07,05,09,15,16.00
2011,07,05,09,16,16.10
2011,07,05,09,17,16.20
2011,07,05,09,18,16.30
2011,07,05,09,19,16.40
2011,07,05,09,20,16.40
2011,07,05,09,21,16.50
2011,07,05,09,22,16.70
2011,07,05,09,23,16.70
2011,07,05,09,24,16.70
2011,07,05,09,25,16.80
2011,07,05,09,26,16.80
2011,07,05,09,27,16.80
2011,07,05,09,28,16.80
2011,07,05,09,29,16.90
2011,07,05,09,30,16.90
2011,07,05,09,31,17.00
2011,07,05,09,32,17.00
2011,07,05,09,33,17.00
2011,07,05,09,34,17.10
2011,07,05,09,35,17.20
2011,07,05,09,36,17.20
2011,07,05,09,37,17.30
2011,07,05,09,38,17.30
2011,07,05,09,39,17.20
2011,07,05,09,40,17.30
2011,07,05,09,41,17.30
2011,07,05,09,42,17.40
2011,07,05,09,43,17.50
2011,07,05,09,44,17.60
2011,07,05,09,45,17.70
2011,07,05,09,46,17.80
2011,07,05,09,47,17.90
2011,07,05,09,48,18.00
2011,07,05,09,49,18.10
2011,07,05,09,50,18.00
2011,07,05,09,51,18.00
2011,07,05,09,52,18.10
2011,07,05,09,53,18.00
2011,07,05,09,54,17.90
2011,07,05,09,55,17.90
2011,07,05,09,56,18.00
2011,07,05,09,57,18.10
2011,07,05,09,58,18.10
2011,07,05,09,59,18.10
2011,07,05,10,00,18.20
2011,07,05,10,01,18.20
2011,07,05,10,02,18.40
2011,07,05,10,03,18.40
2011,07,05,10,04,18.40
2011,07,05,10,05,18.50
2011,07,05,10,06,18.60
2011,07,05,10,07,18.60
2011,07,05,10,08,18.60
2011,07,05,10,09,18.70
2011,07,05,10,10,18.80
2011,07,05,10,11,18.80
2011,07,05,10,12,18.90
2011,07,05,10,13,18.90
2011,07,05,10,14,18.90
2011,07,05,10,15,19.10
2011,07,05,10,16,19.10
2011,07,05,10,17,19.10
2011,07,05,10,18,19.10
2011,07,05,10,19,19.10
2011,07,05,10,20,19.10
2011,07,05,10,21,19.00
2011,07,05,10,22,18.90
2011,07,05,10,23,18.90
2011,07,05,10,24,18.90
2011,07,05,10,25,19.00
2011,07,05,10,26,19.10
2011,07,05,10,27,19.10
2011,07,05,10,28,19.20
2011,07,05,10,29,19.20
2011,07,05,10,30,19.20
2011,07,05,10,31,19.20
2011,07,05,10,32,19.30
2011,07,05,10,33,19.30
2011,07,05,10,34,19.20
2011,07,05,10,35,19.30
2011,07,05,10,36,19.40
2011,07,05,10,37,19.40
2011,07,05,10,38,19.50
2011,07,05,10,39,19.60
2011,07,05,10,40,19.60
2011,07,05,10,41,19.50
2011,07,05,10,42,19.40
2011,07,05,10,43,19.40
2011,07,05,10,44,19.30
2011,07,05,10,45,19.30
2011,07,05,10,46,19.30
2011,07,05,10,47,19.30
2011,07,05,10,48,19.40
2011,07,05,10,49,19.50
2011,07,05,10,50,19.60
2011,07,05,10,51,19.60
2011,07,05,10,52,19.50
2011,07,05,10,53,19.60
2011,07,05,10,54,19.70
2011,07,05,10,55,19.80
2011,07,05,10,56,19.80
2011,07,05,10,57,19.80
2011,07,05,10,58,19.80
2011,07,05,10,59,19.90
2011,07,05,11,00,19.90
2011,07,05,11,01,20.10
2011,07,05,11,02,20.20
2011,07,05,11,03,20.30
2011,07,05,11,04,20.40
2011,07,05,11,05,20.40
2011,07,05,11,06,20.40
2011,07,05,11,07,20.40
2011,07,05,11,08,20.20
2011,07,05,11,09,20.20
2011,07,05,11,10,20.00
2011,07,05,11,11,19.90
2011,07,05,11,12,19.90
2011,07,05,11,13,19.90
2011,07,05,11,14,19.90
2011,07,05,11,15,19.90
2011,07,05,11,16,19.90
2011,07,05,11,17,19.90
2011,07,05,11,18,19.90
2011,07,05,11,19,20.00
2011,07,05,11,20,20.00
2011,07,05,11,21,20.10
2011,07,05,11,22,20.10
2011,07,05,11,23,20.10
2011,07,05,11,24,20.10
2011,07,05,11,25,20.10
2011,07,05,11,26,20.20
2011,07,05,11,27,20.20
2011,07,05,11,28,20.30
2011,07,05,11,29,20.40
2011,07,05,11,30,20.50
2011,07,05,11,31,20.60
2011,07,05,11,32,20.70
2011,07,05,11,33,20.80
2011,07,05,11,34,20.80
2011,07,05,11,35,20.80
2011,07,05,11,36,20.80
2011,07,05,11,37,20.70
2011,07,05,11,38,20.60
2011,07,05,11,39,20.60
2011,07,05,11,40,20.60
2011,07,05,11,41,20.50
2011,07,05,11,42,20.50
2011,07,05,11,43,20.50
2011,07,05,11,44,20.50
2011,07,05,11,45,20.50
2011,07,05,11,46,20.40
2011,07,05,11,47,20.40
2011,07,05,11,48,20.30
2011,07,05,11,49,20.20
2011,07,05,11,50,20.20
2011,07,05,11,51,20.10
2011,07,05,11,52,20.10
2011,07,05,11,53,20.10
2011,07,05,11,54,20.10
2011,07,05,11,55,20.10
2011,07,05,11,56,20.20
2011,07,05,11,57,20.20
2011,07,05,11,58,20.20
2011,07,05,11,59,20.20
2011,07,05,12,00,20.20
2011,07,05,12,01,20.20
2011,07,05,12,02,20.20
2011,07,05,12,03,20.20
2011,07,05,12,04,20.30
2011,07,05,12,05,20.40
2011,07,05,12,06,20.50
2011,07,05,12,07,20.50
2011,07,05,12,08,20.50
2011,07,05,12,09,20.50
2011,07,05,12,10,20.60
2011,07,05,12,11,20.60
2011,07,05,12,12,20.60
2011,07,05,12,13,20.70
2011,07,05,12,14,20.70
2011,07,05,12,15,20.80
2011,07,05,12,16,20.90
2011,07,05,12,17,21.00
2011,07,05,12,18,21.10
2011,07,05,12,19,21.10
2011,07,05,12,20,21.20
2011,07,05,12,21,21.30
2011,07,05,12,22,21.30
2011,07,05,12,23,21.40
2011,07,05,12,24,21.40
2011,07,05,12,25,21.60
2011,07,05,12,26,21.70
2011,07,05,12,27,21.70
2011,07,05,12,28,21.70
2011,07,05,12,29,21.80
2011,07,05,12,30,21.80
2011,07,05,12,31,21.80
2011,07,05,12,32,21.70
2011,07,05,12,33,21.70
2011,07,05,12,34,21.70
2011,07,05,12,35,21.80
2011,07,05,12,36,21.70
2011,07,05,12,37,21.70
2011,07,05,12,38,21.70
2011,07,05,12,39,21.70
2011,07,05,12,40,21.80
2011,07,05,12,41,21.80
2011,07,05,12,42,21.80
2011,07,05,12,43,21.80
2011,07,05,12,44,21.80
2011,07,05,12,45,21.90
2011,07,05,12,46,22.00
2011,07,05,12,47,22.00
2011,07,05,12,48,22.10
2011,07,05,12,49,22.10
2011,07,05,12,50,22.10
2011,07,05,12,51,22.10
2011,07,05,12,52,22.10
2011,07,05,12,53,22.10
2011,07,05,12,54,22.10
2011,07,05,12,55,22.10
2011,07,05,12,56,22.00
2011,07,05,12,57,22.10
2011,07,05,12,58,22.20
2011,07,05,12,59,22.30
2011,07,05,13,00,22.40
2011,07,05,13,01,22.50
2011,07,05,13,02,22.60
2011,07,05,13,03,22.50
2011,07,05,13,04,22.50
2011,07,05,13,05,22.50
2011,07,05,13,06,22.60
2011,07,05,13,07,22.60
2011,07,05,13,08,22.70
2011,07,05,13,09,22.70
2011,07,05,13,10,22.80
2011,07,05,13,11,22.80
2011,07,05,13,12,22.80
2011,07,05,13,13,22.90
2011,07,05,13,14,22.90
2011,07,05,13,15,22.90
2011,07,05,13,16,23.00
2011,07,05,13,17,23.10
2011,07,05,13,18,23.20
2011,07,05,13,19,23.20
2011,07,05,13,20,23.10
2011,07,05,13,21,22.90
2011,07,05,13,22,22.90
2011,07,05,13,23,22.90
2011,07,05,13,24,22.90
2011,07,05,13,25,22.80
2011,07,05,13,26,22.80
2011,07,05,13,27,22.80
2011,07,05,13,28,22.80
2011,07,05,13,29,22.80
2011,07,05,13,30,22.80
2011,07,05,13,31,22.70
2011,07,05,13,32,22.80
2011,07,05,13,33,22.80
2011,07,05,13,34,22.90
2011,07,05,13,35,22.90
2011,07,05,13,36,22.90
2011,07,05,13,37,22.90
2011,07,05,13,38,23.00
2011,07,05,13,39,23.00
2011,07,05,13,40,23.00
2011,07,05,13,41,23.00
2011,07,05,13,42,22.90
2011,07,05,13,43,22.90
2011,07,05,13,44,22.90
2011,07,05,13,45,22.90
2011,07,05,13,46,23.00
2011,07,05,13,47,23.10
2011,07,05,13,48,23.10
2011,07,05,13,49,23.10
2011,07,05,13,50,22.90
2011,07,05,13,51,22.90
2011,07,05,13,52,22.90
2011,07,05,13,53,23.00
2011,07,05,13,54,23.10
2011,07,05,13,55,23.20
2011,07,05,13,56,23.20
2011,07,05,13,57,23.20
2011,07,05,13,58,23.20
2011,07,05,13,59,23.20
2011,07,05,14,00,23.20
2011,07,05,14,01,23.10
2011,07,05,14,02,23.00
2011,07,05,14,03,22.90
2011,07,05,14,04,22.90
2011,07,05,14,05,22.90
2011,07,05,14,06,22.90
2011,07,05,14,07,23.00
2011,07,05,14,08,23.10
2011,07,05,14,09,23.10
2011,07,05,14,10,23.20
2011,07,05,14,11,23.20
2011,07,05,14,12,23.10
2011,07,05,14,13,23.10
2011,07,05,14,14,23.10
2011,07,05,14,15,23.00
2011,07,05,14,16,22.90
2011,07,05,14,17,22.90
2011,07,05,14,18,22.70
2011,07,05,14,19,22.60
2011,07,05,14,20,22.60
2011,07,05,14,21,22.60
2011,07,05,14,22,22.60
2011,07,05,14,23,22.70
2011,07,05,14,24,22.80
2011,07,05,14,25,22.90
2011,07,05,14,26,23.00
2011,07,05,14,27,23.10
2011,07,05,14,28,23.20
2011,07,05,14,29,23.30
2011,07,05,14,30,23.40
2011,07,05,14,31,23.50
2011,07,05,14,32,23.60
2011,07,05,14,33,23.70
2011,07,05,14,34,23.60
2011,07,05,14,35,23.60
2011,07,05,14,36,23.50
2011,07,05,14,37,23.40
2011,07,05,14,38,23.40
2011,07,05,14,39,23.40
2011,07,05,14,40,23.40
2011,07,05,14,41,23.30
2011,07,05,14,42,23.30
2011,07,05,14,43,23.30
2011,07,05,14,44,23.20
2011,07,05,14,45,23.20
2011,07,05,14,46,23.10
2011,07,05,14,47,23.10
2011,07,05,14,48,23.10
2011,07,05,14,49,23.10
2011,07,05,14,50,23.20
2011,07,05,14,51,23.30
2011,07,05,14,52,23.30
2011,07,05,14,53,23.40
2011,07,05,14,54,23.50
2011,07,05,14,55,23.60
2011,07,05,14,56,23.70
2011,07,05,14,57,23.70
2011,07,05,14,58,23.70
2011,07,05,14,59,23.70
2011,07,05,15,00,23.70
2011,07,05,15,01,23.70
2011,07,05,15,02,23.60
2011,07,05,15,03,23.70
2011,07,05,15,04,23.70
2011,07,05,15,05,23.70
2011,07,05,15,06,23.70
2011,07,05,15,07,23.70
2011,07,05,15,08,23.70
2011,07,05,15,09,23.70
2011,07,05,15,10,23.80
2011,07,05,15,11,23.80
2011,07,05,15,12,23.80
2011,07,05,15,13,23.90
2011,07,05,15,14,23.80
2011,07,05,15,15,23.80
2011,07,05,15,16,23.80
2011,07,05,15,17,23.80
2011,07,05,15,18,23.80
2011,07,05,15,19,23.70
2011,07,05,15,20,23.70
2011,07,05,15,21,23.60
2011,07,05,15,22,23.50
2011,07,05,15,23,23.40
2011,07,05,15,24,23.30
2011,07,05,15,25,23.30
2011,07,05,15,26,23.40
2011,07,05,15,27,23.50
2011,07,05,15,28,23.60
2011,07,05,15,29,23.70
2011,07,05,15,30,23.70
2011,07,05,15,31,23.70
2011,07,05,15,32,23.80
2011,07,05,15,33,23.80
2011,07,05,15,34,23.80
2011,07,05,15,35,23.70
2011,07,05,15,36,23.70
2011,07,05,15,37,23.70
2011,07,05,15,38,23.70
2011,07,05,15,39,23.70
2011,07,05,15,40,23.70
2011,07,05,15,41,23.60
2011,07,05,15,42,23.50
2011,07,05,15,43,23.40
2011,07,05,15,44,23.30
2011,07,05,15,45,23.30
2011,07,05,15,46,23.30
2011,07,05,15,47,23.30
2011,07,05,15,48,23.40
2011,07,05,15,49,23.40
2011,07,05,15,50,23.60
2011,07,05,15,51,23.50
2011,07,05,15,52,23.30
2011,07,05,15,53,23.20
2011,07,05,15,54,23.10
2011,07,05,15,55,23.00
2011,07,05,15,56,22.90
2011,07,05,15,57,22.80
2011,07,05,15,58,22.80
2011,07,05,15,59,22.70
2011,07,05,16,00,22.70
2011,07,05,16,01,22.70
2011,07,05,16,02,22.70
2011,07,05,16,03,22.80
2011,07,05,16,04,22.80
2011,07,05,16,05,22.80
2011,07,05,16,06,22.90
2011,07,05,16,07,22.90
2011,07,05,16,08,22.90
2011,07,05,16,09,22.90
2011,07,05,16,10,22.90
2011,07,05,16,11,23.00
2011,07,05,16,12,22.90
2011,07,05,16,13,23.10
2011,07,05,16,14,23.10
2011,07,05,16,15,23.20
2011,07,05,16,16,23.20
2011,07,05,16,17,23.30
2011,07,05,16,18,23.30
2011,07,05,16,19,23.30
2011,07,05,16,20,23.30
2011,07,05,16,21,23.30
2011,07,05,16,22,23.40
2011,07,05,16,23,23.50
2011,07,05,16,24,23.60
2011,07,05,16,25,23.60
2011,07,05,16,26,23.70
2011,07,05,16,27,23.60
2011,07,05,16,28,23.60
2011,07,05,16,29,23.40
2011,07,05,16,30,23.40
2011,07,05,16,31,23.40
2011,07,05,16,32,23.40
2011,07,05,16,33,23.30
2011,07,05,16,34,23.30
2011,07,05,16,35,23.30
2011,07,05,16,36,23.30
2011,07,05,16,37,23.30
2011,07,05,16,38,23.30
2011,07,05,16,39,23.30
2011,07,05,16,40,23.20
2011,07,05,16,41,23.10
2011,07,05,16,42,23.00
2011,07,05,16,43,22.90
2011,07,05,16,44,22.80
2011,07,05,16,45,22.70
2011,07,05,16,46,22.60
2011,07,05,16,47,22.60
2011,07,05,16,48,22.50
2011,07,05,16,49,22.40
2011,07,05,16,50,22.40
2011,07,05,16,51,22.50
2011,07,05,16,52,22.50
2011,07,05,16,53,22.60
2011,07,05,16,54,22.70
2011,07,05,16,55,22.70
2011,07,05,16,56,22.70
2011,07,05,16,57,22.70
2011,07,05,16,58,22.70
2011,07,05,16,59,22.90
2011,07,05,17,00,22.90
2011,07,05,17,01,23.00
2011,07,05,17,02,23.10
2011,07,05,17,03,23.10
2011,07,05,17,04,23.10
2011,07,05,17,05,23.10
2011,07,05,17,06,23.00
2011,07,05,17,07,22.90
2011,07,05,17,08,22.90
2011,07,05,17,09,22.90
2011,07,05,17,10,22.80
2011,07,05,17,11,22.70
2011,07,05,17,12,22.70
2011,07,05,17,13,22.70
2011,07,05,17,14,22.70
2011,07,05,17,15,22.70
2011,07,05,17,16,22.80
2011,07,05,17,17,22.80
2011,07,05,17,18,22.70
2011,07,05,17,19,22.70